Lapse_Rate
5.4 5.5 5.6 5.8 6.3 6.2 6.5 6.7 6.8 7.0 7.1 7.0 7.2 7.5 7.3 7.2 7.1 6.9 7.4 7.0 6.9 6.6 6.6 6.8 7.3 7.6 8.1 8.0 7.6 8.0 7.3 6.9 7.1 6.0 6.7 6.6 6.9 6.9 6.8 6.3 5.6 5.2 5.4 5.2 5.3 5.3 5.6 5.6 5.9 5.9 6.4 6.7 6.8 6.7
5.6 5.6 5.7 6.0 6.3 6.2 6.5 6.6 6.9 6.8 7.1 7.2 7.3 7.3 7.0 6.9 7.2 7.1 7.1 6.9 6.7 6.8 7.0 7.0 7.3 7.7 8.2 8.5 8.3 7.6 7.4 7.3 7.0 6.5 6.3 6.6 7.0 6.7 6.4 6.1 6.3 6.1 6.0 5.7 5.6 5.8 6.4 6.4 6.3 6.5 6.3 6.1 6.2 6.0
5.8 5.7 5.9 6.2 6.2 6.1 6.6 6.6 6.7 6.7 7.0 7.2 7.0 7.4 7.8 7.0 7.1 7.4 7.4 7.2 7.0 7.0 7.1 7.2 7.2 7.6 7.8 7.6 7.8 7.3 7.4 7.4 6.8 6.4 5.7 5.6 6.5 6.6 6.2 7.1 6.9 6.1 6.0 5.8 5.7 5.9 6.0 6.2 5.9 5.7 6.1 5.9 5.9 5.7
5.9 5.7 6.0 6.2 6.3 6.6 6.7 6.6 6.8 6.9 6.9 7.0 6.8 6.8 6.9 7.1 7.1 7.2 7.1 7.0 7.0 7.1 7.4 7.3 7.3 7.4 7.2 7.4 7.4 7.4 6.9 6.9 6.1 6.3 6.0 6.3 6.3 6.4 6.5 6.9 7.0 6.9 6.2 6.0 6.0 5.9 6.5 6.2 5.9 5.9 5.5 5.9 5.6 5.6
6.0 5.8 6.1 6.2 6.4 6.6 6.7 6.8 6.7 6.8 6.9 6.8 6.8 7.1 7.0 7.1 7.1 7.0 7.0 7.3 7.2 7.5 7.4 7.1 7.4 7.6 7.8 7.8 7.6 7.7 7.3 7.1 6.4 6.1 5.9 5.6 6.2 6.3 6.6 6.6 6.7 6.7 6.6 6.5 6.8 6.7 6.2 6.2 5.9 5.7 5.7 5.4 5.2 5.3
6.1 5.8 6.1 6.3 6.5 6.7 6.7 6.4 6.5 6.8 7.1 7.0 7.0 7.0 7.0 7.2 7.0 7.1 7.1 6.8 7.2 7.2 7.6 7.6 8.0 8.1 8.0 7.8 7.8 7.6 7.1 7.2 6.5 6.6 6.6 6.1 6.9 6.6 6.4 6.3 6.6 7.1 6.9 6.2 6.1 5.8 5.9 6.1 5.8 5.7 5.4 5.3 5.1 5.0
6.2 6.0 6.1 6.3 6.4 6.6 6.8 6.8 6.7 6.6 6.9 7.0 7.0 7.2 7.0 6.7 6.7 6.7 6.8 7.3 7.1 7.3 7.2 7.2 7.4 7.5 7.7 7.7 7.6 7.2 7.2 7.4 6.8 6.4 6.2 6.3 6.0 6.4 6.6 6.5 6.3 7.1 6.9 6.1 6.3 6.1 6.0 6.1 6.0 5.9 5.8 5.6 5.5 5.6
6.2 6.1 6.1 6.3 6.2 6.6 6.9 6.9 7.0 6.8 6.9 7.0 6.8 6.9 7.0 7.0 7.0 6.9 7.1 7.2 7.1 6.8 7.2 7.3 7.1 7.5 7.6 7.3 6.5 6.9 7.1 6.8 6.7 6.6 6.4 6.4 6.3 6.8 6.7 6.1 6.0 6.6 6.8 6.4 6.5 6.6 6.7 6.2 5.8 5.8 5.9 5.7 5.6 5.4
6.3 6.1 6.3 6.1 6.2 6.4 6.7 6.9 7.0 7.1 7.1 6.9 6.8 6.9 6.9 6.9 6.9 7.0 7.0 7.1 7.4 7.1 7.1 7.2 7.4 7.7 7.5 6.9 6.7 6.7 6.7 6.9 6.8 6.6 6.8 6.4 6.5 6.5 6.8 7.1 6.9 7.1 7.0 6.8 6.5 6.5 6.4 6.3 6.3 6.0 5.8 5.6 5.5 5.1
6.2 6.2 6.4 6.2 6.1 6.3 6.3 6.5 6.9 6.9 7.1 7.0 7.0 6.8 6.8 6.9 7.0 7.1 7.0 7.1 7.0 7.1 7.2 7.5 7.4 7.4 7.1 7.0 6.9 6.9 6.6 6.8 6.8 6.6 6.8 6.6 6.7 7.2 7.1 7.2 7.0 6.9 7.0 6.9 7.0 6.7 6.5 5.9 5.9 5.5 5.5 5.2 4.9 4.8
6.2 6.3 6.3 6.4 6.1 6.2 6.1 6.3 6.5 6.7 7.0 7.1 7.0 6.9 6.9 6.8 6.9 6.9 6.8 6.9 6.8 7.0 7.0 7.0 7.2 7.4 7.1 7.1 7.0 7.0 7.0 6.6 6.7 6.9 6.6 6.5 7.0 7.3 7.3 7.1 6.8 6.8 6.8 6.9 6.4 6.0 5.8 5.4 5.4 5.4 5.2 5.1 4.8 4.5
6.2 6.3 6.3 6.5 6.3 6.1 6.2 6.1 6.3 6.7 6.8 6.9 6.9 7.0 6.8 6.8 6.8 6.9 7.1 7.1 7.0 7.1 6.9 7.2 7.3 7.2 7.1 7.1 7.0 7.1 7.0 6.8 6.4 6.6 6.7 7.0 7.6 7.4 7.3 7.0 6.7 6.5 6.6 6.5 6.2 5.9 5.6 5.3 4.9 5.1 4.7 4.8 4.6 4.4
6.2 6.3 6.4 6.6 6.4 6.2 6.1 6.2 6.5 6.6 6.8 6.8 6.7 6.7 6.7 6.8 7.1 7.0 6.9 6.7 7.0 7.3 7.3 7.2 7.2 6.8 6.7 7.0 7.0 7.1 7.1 6.7 6.5 6.3 6.7 7.4 7.4 7.7 7.3 6.6 6.3 6.3 6.2 5.8 5.9 5.6 5.4 5.3 5.1 5.0 4.8 4.5 4.3 4.5
6.3 6.4 6.4 6.5 6.5 6.4 6.1 6.0 6.2 6.4 6.6 6.7 6.9 6.9 6.9 7.0 7.0 6.9 7.0 7.1 7.0 7.2 7.2 7.1 6.8 6.4 6.6 6.8 7.0 7.1 6.6 6.4 6.0 5.9 6.5 7.2 7.2 7.7 6.9 6.1 6.0 6.1 5.7 5.7 5.4 5.3 5.4 5.5 5.3 5.1 5.0 5.0 4.9 4.8
6.4 6.4 6.4 6.6 6.5 6.5 6.4 5.9 5.8 5.9 5.9 6.3 6.7 7.0 7.0 7.1 6.9 6.9 6.9 6.7 6.7 6.7 6.7 6.6 6.5 6.6 6.7 7.0 6.8 6.6 6.2 6.1 6.1 6.4 6.5 6.6 6.9 6.6 6.2 6.2 5.7 6.0 5.6 5.3 5.3 5.6 5.6 5.5 5.3 5.1 5.0 5.0 4.9 4.9
6.4 6.4 6.5 6.7 6.7 6.6 6.5 6.4 6.4 6.2 6.2 6.5 6.7 6.9 7.0 7.1 7.1 7.1 7.1 7.2 7.0 6.6 6.5 6.4 6.5 6.7 6.8 6.8 6.5 6.3 6.3 6.5 6.7 6.5 6.3 6.1 6.2 6.3 6.2 5.9 5.8 5.7 5.5 5.6 5.5 5.5 5.5 5.4 5.4 5.3 5.1 5.1 5.0 4.9
6.4 6.5 6.5 6.7 6.9 6.7 6.5 6.4 6.4 6.3 6.3 6.5 6.6 6.5 6.4 6.6 6.8 6.9 6.9 6.9 6.5 6.1 6.2 6.3 6.4 6.5 6.3 6.3 6.0 6.0 6.3 6.8 6.9 6.8 6.3 5.6 5.1 5.2 5.2 5.2 5.2 5.0 5.5 5.8 5.8 5.6 5.4 5.4 5.3 5.2 5.2 5.1 5.0 5.0
6.4 6.5 6.7 6.8 7.0 6.9 6.7 6.5 6.3 6.4 6.6 6.7 6.6 6.5 6.6 6.7 6.7 6.7 6.5 6.2 6.1 6.1 6.2 6.2 6.3 6.2 6.4 6.1 6.2 6.1 6.5 6.5 6.5 6.5 6.6 6.1 5.7 5.6 5.8 6.0 5.9 5.8 5.7 5.6 5.4 5.3 5.3 5.3 5.1 5.2 5.3 5.2 5.1 5.1
6.5 6.6 6.8 7.0 7.1 7.1 6.9 6.8 6.7 7.0 6.8 6.6 6.4 6.5 6.5 6.5 6.3 6.4 6.3 6.4 6.2 6.0 6.0 6.3 6.5 6.5 6.3 6.3 6.3 6.3 6.1 6.2 6.4 6.3 6.1 6.1 6.0 5.9 5.7 5.8 5.8 5.8 5.8 5.6 5.4 5.3 5.2 5.3 5.4 5.3 5.2 5.1 5.3 5.5
6.5 6.7 6.9 7.1 7.1 7.0 7.1 7.1 7.1 7.3 7.1 6.8 6.8 6.9 6.8 6.7 6.7 6.7 6.6 6.4 6.2 6.3 6.5 6.5 6.4 6.5 6.6 6.5 6.5 6.4 6.3 6.4 6.6 6.6 6.4 6.4 6.4 6.2 6.0 6.0 5.9 5.8 5.8 5.8 5.6 5.6 5.6 5.5 5.5 5.6 5.9 6.1 6.2 6.3
6.6 6.7 6.9 7.0 6.9 7.0 7.2 7.1 7.0 7.0 6.8 6.7 6.7 6.8 7.0 7.0 6.9 6.9 6.6 6.7 6.6 6.9 6.8 6.6 6.6 6.6 6.7 6.7 6.7 6.6 6.6 6.6 6.5 6.5 6.4 6.4 6.4 6.3 6.0 6.0 6.0 6.0 5.9 5.9 6.0 6.1 6.1 6.2 6.4 6.6 6.7 6.6 6.5 6.4
6.7 6.8 7.0 6.9 6.8 6.9 6.9 6.9 6.9 6.7 6.8 6.7 6.7 6.9 7.0 6.9 7.0 7.0 7.0 7.0 6.9 6.8 6.7 6.7 6.7 6.8 6.7 6.8 6.8 6.9 6.9 6.8 6.8 6.8 6.9 6.8 6.7 6.5 6.4 6.4 6.6 6.7 6.8 6.8 6.8 6.7 6.7 6.6 6.5 6.5 6.3 6.1 5.9 5.8
6.7 6.8 6.8 6.8 6.7 6.8 6.5 6.6 6.6 6.8 6.6 6.7 6.9 6.9 6.9 7.1 7.2 7.3 7.1 7.1 6.9 6.9 6.9 6.9 6.9 6.9 7.1 7.1 7.0 7.0 6.9 7.0 7.0 7.0 6.9 6.9 7.0 7.0 7.1 7.1 7.0 6.9 6.7 6.6 6.5 6.3 6.3 6.2 6.1 5.9 5.8 5.7 5.7 5.7
6.5 6.5 6.6 6.7 6.8 6.8 6.3 6.3 6.5 6.7 6.6 6.8 6.8 6.9 7.0 7.2 7.3 7.3 7.3 7.2 7.0 6.9 6.9 7.0 7.1 7.2 7.2 7.1 7.2 7.2 7.2 7.1 7.1 7.0 7.0 7.0 7.0 7.0 7.0 6.8 6.6 6.4 6.3 6.3 6.2 6.1 5.9 5.8 5.8 5.8 5.8 5.7 5.7 5.7
6.4 6.6 6.6 6.6 6.8 6.5 6.2 6.1 6.3 6.6 6.6 6.8 6.8 6.7 6.7 6.8 6.9 6.9 7.0 6.9 6.9 6.8 6.8 6.7 6.7 6.7 6.9 6.9 6.9 6.9 6.9 6.9 6.9 6.7 6.6 6.4 6.4 6.4 6.3 6.2 6.1 6.1 6.1 6.0 6.0 5.9 5.8 5.7 5.6 5.6 5.6 5.6 5.5 5.4
6.6 6.4 6.4 6.6 6.6 6.5 6.3 6.0 6.2 6.5 6.3 6.4 6.5 6.5 6.5 6.6 6.7 6.5 6.7 6.7 6.6 6.5 6.4 6.4 6.4 6.4 6.3 6.2 6.2 6.2 6.3 6.2 6.1 6.3 6.3 6.3 6.2 6.1 6.1 6.0 6.0 5.9 5.9 5.8 5.6 5.5 5.5 5.4 5.3 5.3 5.3 5.2 5.2 5.2
6.4 6.4 6.5 6.7 6.7 6.8 6.5 6.3 6.2 6.3 6.0 6.3 6.4 6.3 6.5 6.5 6.5 6.4 6.4 6.4 6.4 6.4 6.4 6.5 6.5 6.4 6.3 6.4 6.4 6.4 6.3 6.3 6.3 6.2 6.1 6.0 5.9 5.9 5.8 5.7 5.7 5.6 5.4 5.3 5.2 5.2 5.1 5.2 5.2 5.2 5.2 5.2 5.1 5.1
6.4 6.6 6.7 6.8 6.7 6.7 6.7 6.0 5.9 5.9 6.2 6.3 6.3 6.3 6.5 6.6 6.4 6.5 6.5 6.5 6.4 6.3 6.3 6.3 6.3 6.3 6.3 6.2 6.1 6.1 6.1 6.0 5.9 5.8 5.7 5.7 5.6 5.5 5.5 5.4 5.3 5.1 5.1 5.1 5.2 5.2 5.2 5.1 5.1 5.1 5.0 4.9 4.8 4.7
6.6 6.7 6.4 6.3 6.3 6.0 5.9 6.0 6.3 6.4 6.4 6.3 6.4 6.5 6.6 6.8 6.4 6.3 6.3 6.3 6.2 6.2 6.1 6.2 6.3 6.2 6.1 6.1 6.0 5.9 5.8 5.7 5.7 5.7 5.7 5.7 5.5 5.3 5.2 5.1 5.1 5.1 5.2 5.1 5.1 5.1 5.1 5.0 4.9 4.8 4.8 4.7 4.6 4.5
6.4 6.3 6.0 6.0 6.2 6.1 6.2 6.5 6.7 6.7 6.6 6.5 6.6 6.6 6.5 6.1 6.0 6.1 6.1 6.0 6.0 6.0 6.0 6.0 6.1 6.0 5.9 5.8 5.8 5.8 5.8 5.8 5.7 5.5 5.5 5.3 5.3 5.2 5.1 5.1 5.2 5.2 5.2 5.1 5.1 5.0 4.9 4.8 4.8 4.7 4.6 4.4 4.3 4.3
6.3 6.2 6.0 6.2 6.3 6.2 6.4 6.5 6.5 6.4 6.4 6.4 6.4 6.5 6.4 5.9 5.7 5.8 5.9 5.9 5.8 5.8 5.9 6.0 6.0 5.9 5.9 5.9 5.9 5.9 5.8 5.8 5.7 5.5 5.3 5.2 5.2 5.2 5.2 5.2 5.3 5.2 5.1 4.9 4.9 4.8 4.8 4.6 4.4 4.2 4.2 4.3 4.4 4.6
6.3 6.2 6.3 6.4 6.1 6.0 6.1 6.2 6.3 6.2 6.2 6.2 6.2 6.1 6.0 5.9 5.7 5.6 5.5 5.6 5.6 5.7 5.8 5.9 5.9 5.9 5.9 5.8 5.8 5.7 5.6 5.5 5.4 5.3 5.2 5.2 5.2 5.3 5.3 5.3 5.2 5.1 5.0 4.9 4.9 4.7 4.5 4.2 4.3 4.5 4.6 4.8 5.2 5.7
6.3 6.2 6.3 6.2 5.9 5.8 5.8 6.0 6.0 5.9 6.0 5.9 5.9 5.8 5.9 5.9 5.8 5.7 5.7 5.7 5.8 5.8 5.9 5.9 5.8 5.8 5.8 5.7 5.6 5.5 5.4 5.3 5.2 5.1 5.1 5.2 5.3 5.3 5.3 5.1 5.0 5.0 4.9 4.8 4.6 4.3 4.4 4.7 4.8 5.0 5.3 5.7 6.2 6.6
Wind_Speed
22 23 25 27 27 29 29 29 26 20 20 20 19 18 19 23 26 14 8 8 11 3 2 2 9 11 11 14 11 6 5 5 4 10 6 6 7 9 7 5 5 12 9 5 4 6 16 7 4 15 1 1 2 2
22 22 24 26 27 28 28 29 17 17 10 3 6 16 26 21 37 19 6 2 3 5 3 2 3 2 12 16 11 4 6 4 8 7 3 4 3 4 11 9 4 6 6 7 10 6 3 6 1 3 3 1 2 0
20 21 23 25 27 28 28 25 10 14 5 12 19 22 35 33 29 15 4 5 4 4 4 4 3 1 1 3 5 9 3 2 2 1 3 2 7 5 6 6 5 5 2 3 3 5 6 5 3 2 3 3 1 2
20 20 23 24 24 28 28 15 7 7 3 10 19 24 20 15 14 10 5 1 5 4 4 1 2 0 1 5 6 5 2 0 4 2 3 5 3 3 4 4 4 5 8 6 3 3 1 5 7 7 5 4 6 7
18 19 21 22 22 27 30 15 9 4 5 13 13 19 20 19 19 10 5 3 1 5 3 3 2 3 2 5 10 8 9 9 4 5 3 3 3 4 2 1 4 8 7 7 4 6 2 4 10 9 9 8 9 13
17 18 20 21 20 24 24 22 10 2 5 6 21 20 21 22 19 6 2 3 3 4 4 4 1 1 1 3 4 10 9 5 3 3 4 3 6 3 5 4 5 12 10 4 3 9 4 1 3 7 9 12 11 12
16 17 18 18 17 21 24 22 18 4 10 12 13 16 20 11 4 3 3 3 5 3 3 2 0 1 0 2 1 1 1 2 2 2 4 2 3 2 2 4 5 14 13 10 8 10 2 4 4 9 12 12 14 13
14 15 16 17 16 12 19 22 24 4 15 16 18 21 20 19 8 5 5 4 5 5 3 3 2 2 3 2 2 1 0 2 2 2 2 2 2 1 4 6 3 9 11 10 12 3 5 9 11 12 15 16 16 15
13 13 13 15 15 12 10 17 20 21 19 22 23 18 6 5 2 2 12 10 4 3 4 2 5 4 3 1 1 1 0 2 1 2 2 2 3 4 6 8 11 11 11 10 9 7 12 12 14 14 15 15 16 15
11 12 12 13 12 10 6 6 12 13 15 13 7 3 2 2 17 5 4 2 3 2 2 2 2 3 2 2 1 1 1 1 2 1 1 3 3 7 5 4 6 8 8 15 11 9 10 13 14 15 15 13 14 15
10 11 11 12 13 11 7 1 3 6 6 2 2 2 2 3 2 3 2 2 1 2 1 1 2 4 0 2 2 1 1 1 1 2 2 2 3 3 8 8 4 5 10 13 11 11 15 17 17 15 14 13 13 14
9 10 10 11 13 12 9 3 5 2 1 4 5 4 2 2 2 3 2 3 2 3 4 4 3 2 2 1 2 1 0 1 2 2 1 3 3 3 3 4 5 7 10 9 11 13 13 14 14 15 12 11 12 12
9 9 10 10 12 13 10 5 8 13 10 1 2 3 1 1 5 3 4 2 2 4 4 4 3 2 2 1 2 1 2 2 2 2 3 3 2 2 5 5 7 8 10 10 12 12 15 14 12 14 13 11 13 12
9 8 9 10 10 12 6 3 9 2 2 2 3 3 2 0 0 1 2 3 2 3 6 3 2 2 2 2 2 2 1 2 2 2 3 2 4 4 7 6 10 10 10 12 13 14 15 15 13 10 11 12 12 11
10 8 8 8 7 11 6 11 10 2 2 2 2 1 1 2 2 1 2 3 2 4 4 4 2 1 2 2 1 2 2 4 4 2 2 3 2 6 7 9 10 11 9 10 11 11 12 13 13 12 9 10 12 10
7 6 4 4 8 8 9 10 3 2 2 2 3 2 1 2 2 2 3 3 2 2 3 2 2 2 1 1 2 3 3 4 1 1 2 1 3 8 8 8 9 10 10 11 10 11 12 13 14 12 12 11 10 11
5 3 3 4 7 3 4 3 2 3 2 2 2 1 1 2 2 2 2 2 2 2 2 2 3 2 3 0 2 3 3 2 3 2 3 2 6 10 10 10 9 10 12 12 13 12 13 12 13 14 15 10 12 12
3 2 4 3 2 2 2 3 2 2 3 2 1 1 1 1 3 3 2 1 2 2 2 3 3 3 3 3 2 2 1 2 4 5 6 6 8 10 9 13 11 11 12 11 12 12 12 12 13 10 12 12 12 11
4 3 4 4 4 3 3 3 2 3 1 0 2 1 2 2 2 2 1 0 1 0 2 1 2 1 0 0 2 3 5 3 3 5 7 9 8 11 12 13 12 13 11 10 10 8 8 10 10 8 8 7 8 7
5 1 4 4 2 3 3 2 1 3 2 1 2 2 2 2 1 2 2 2 2 1 3 3 2 2 2 2 1 5 6 7 8 9 7 7 6 10 10 10 9 11 11 12 10 11 9 9 7 7 7 8 8 6
4 0 5 3 3 4 3 1 2 1 2 2 1 1 2 2 2 3 3 2 3 2 2 3 3 3 4 5 5 5 5 2 3 5 7 7 6 8 9 8 10 8 9 7 8 7 8 8 7 6 7 6 5 6
2 4 3 4 3 3 3 2 2 2 2 2 2 2 2 2 2 2 3 4 2 2 1 2 2 2 5 6 5 7 9 12 12 11 12 11 9 7 7 6 8 7 7 6 7 7 7 6 6 6 7 5 5 5
6 3 3 3 4 4 1 1 2 2 2 2 1 3 2 2 1 2 3 1 1 2 1 3 4 5 8 6 9 9 7 14 9 8 8 8 7 7 7 7 6 8 7 5 6 7 6 6 6 7 6 5 5 4
5 3 3 3 3 1 1 2 1 2 2 2 3 2 2 1 2 3 2 1 1 1 2 3 4 6 6 9 5 6 5 8 9 8 6 9 8 7 7 7 7 6 7 6 6 6 6 6 6 6 5 5 4 4
6 4 5 3 2 4 4 2 2 3 2 1 3 2 1 1 2 2 1 1 1 2 2 2 5 5 5 5 4 5 6 5 8 8 5 7 9 7 7 7 7 6 3 7 5 7 6 5 6 6 6 5 4 3
5 3 4 4 1 4 4 4 4 4 3 3 2 2 2 3 3 1 1 1 1 1 2 3 5 5 5 3 5 4 3 3 8 8 4 4 5 7 7 7 6 5 6 5 7 8 7 6 6 6 5 5 5 4
4 1 1 0 3 4 3 3 2 4 3 4 3 2 3 3 2 1 2 2 1 2 1 1 2 5 7 6 6 6 6 7 9 9 7 8 8 6 5 6 7 4 4 7 7 7 7 6 5 5 4 3 4 3
3 3 6 2 3 1 5 3 3 3 3 2 3 3 4 4 2 2 2 2 5 5 7 8 7 7 7 7 7 8 9 9 11 11 11 11 9 9 10 8 8 12 8 7 7 7 6 6 5 5 5 5 4 4
2 1 4 4 3 3 2 3 3 1 2 2 4 3 3 2 2 3 2 4 5 5 8 8 7 7 9 8 7 6 5 4 9 13 14 7 5 5 5 6 7 6 6 8 11 9 10 8 7 7 7 5 4 3
0 1 4 3 4 3 2 1 2 1 2 3 4 4 3 3 4 4 3 4 5 6 6 7 5 6 7 8 7 7 7 5 3 6 7 7 7 5 4 5 5 5 5 6 7 7 8 6 6 5 6 5 5 5
1 3 4 4 4 2 6 3 5 6 3 5 5 7 5 3 2 5 7 4 6 6 8 8 7 5 7 6 6 7 5 6 8 12 12 9 7 6 5 5 4 5 6 7 7 7 7 7 6 7 7 7 7 6
3 3 4 4 3 2 2 3 3 4 3 5 4 3 3 3 4 4 6 5 4 6 6 7 8 4 5 6 7 8 13 8 8 9 12 8 7 7 6 5 5 7 8 9 7 7 8 8 7 7 6 7 6 6
3 3 4 3 2 3 3 4 3 3 4 3 3 2 2 2 3 1 3 6 4 5 7 7 7 8 10 10 10 9 10 9 13 14 14 12 10 8 6 6 6 8 9 8 8 8 9 11 8 8 7 6 6 6
Wind_Direction
310 313 314 313 316 320 318 316 305 302 303 282 220 212 210 205 165 146 161 159 172 114 86 150 164 166 182 201 200 190 150 202 171 224 238 185 208 201 176 179 179 185 171 174 163 206 249 151 134 181 117 7 293 245
313 315 315 317 323 326 327 322 306 326 330 234 185 237 227 211 156 142 120 75 104 94 120 76 65 27 196 199 191 177 222 147 192 199 230 246 167 169 169 226 172 210 195 172 194 210 157 195 198 132 123 87 348 172
316 318 319 318 328 333 331 322 321 358 41 107 94 94 115 133 143 132 122 136 117 116 104 137 141 160 61 147 118 194 249 141 215 112 239 239 252 152 177 196 126 214 144 162 131 195 211 201 258 142 137 129 54 327
318 322 322 321 329 337 333 320 322 344 26 124 121 121 118 130 127 102 98 302 88 109 102 101 114 257 179 164 166 150 176 191 256 177 190 236 262 262 190 171 146 140 146 173 260 252 188 220 223 194 176 121 121 128
320 325 324 326 330 343 338 329 320 334 42 163 146 124 100 98 89 73 71 18 48 107 118 145 134 202 199 196 215 185 202 217 215 221 174 242 206 150 304 144 168 168 166 186 211 168 159 221 203 171 158 177 160 140
320 327 328 331 336 347 347 356 338 96 89 108 170 132 121 122 121 116 85 336 4 107 127 145 30 179 152 220 266 226 225 215 192 277 184 215 253 221 163 195 206 173 173 157 163 188 161 90 110 156 154 153 151 136
318 327 331 336 338 356 355 5 358 167 130 90 114 149 143 133 65 85 155 166 174 79 79 90 250 222 80 92 49 116 62 138 170 211 217 169 259 210 161 203 179 185 179 174 158 119 95 222 203 148 127 122 113 110
314 324 331 340 339 358 357 3 9 41 134 111 92 101 85 91 72 36 18 73 46 80 88 135 170 201 174 179 195 211 154 145 186 246 222 194 30 232 224 222 173 166 162 172 173 104 140 121 126 129 128 126 122 129
307 318 326 336 336 348 9 356 11 30 76 112 107 82 45 42 80 125 103 77 58 90 136 142 159 183 120 149 127 154 269 205 253 227 253 227 151 228 229 190 188 167 170 175 162 131 141 139 139 136 134 133 126 134
297 310 321 333 333 342 5 343 358 31 41 55 51 53 64 57 131 105 23 36 40 17 36 99 162 137 162 158 109 184 248 234 216 61 340 250 231 237 237 232 194 174 144 144 132 139 131 136 143 147 146 137 136 142
286 301 315 328 335 338 346 12 294 21 57 43 60 65 64 311 48 44 89 97 98 74 116 124 115 123 275 153 156 212 211 257 229 123 259 272 264 252 186 199 199 160 160 173 173 159 163 154 147 144 143 137 136 138
274 292 309 324 329 330 332 311 155 56 93 139 107 96 72 45 50 101 69 128 173 170 173 145 142 125 136 150 139 174 209 311 213 145 186 247 251 267 166 157 157 156 160 144 138 132 131 139 142 139 135 139 125 116
266 282 301 317 325 325 339 89 89 111 120 114 78 82 106 330 54 115 150 170 159 167 173 166 140 117 128 108 86 132 187 232 149 234 240 245 307 276 118 114 111 120 117 115 108 115 122 116 117 134 124 116 123 121
263 273 295 310 316 320 338 206 137 174 43 79 113 79 156 328 227 183 159 144 162 141 154 111 102 110 109 88 129 146 163 195 231 235 249 287 287 105 108 111 121 120 125 118 118 122 121 121 114 104 114 128 124 124
264 266 293 299 314 314 297 169 123 60 64 73 79 110 118 97 86 95 121 113 82 133 125 106 69 87 119 144 203 126 194 230 221 225 241 308 323 104 116 110 119 113 111 108 117 115 113 117 116 101 98 104 106 107
249 283 249 275 325 330 113 112 66 73 54 58 46 73 97 124 109 122 100 102 72 107 95 87 106 122 156 144 154 210 198 238 254 245 315 7 106 96 89 85 96 96 100 102 99 104 106 110 110 101 86 89 96 109
195 239 243 322 339 76 140 85 82 59 85 61 74 85 97 84 97 99 108 98 82 104 95 120 132 177 108 251 228 196 234 326 340 7 8 24 117 109 99 89 87 100 100 100 98 95 99 105 108 101 100 98 100 98
208 256 275 310 360 67 45 41 90 82 77 40 98 44 63 6 112 84 93 126 143 152 189 203 137 179 177 201 210 166 108 54 55 53 55 67 97 99 102 99 90 94 96 93 100 104 103 101 96 104 110 109 100 96
207 204 257 286 181 102 85 32 46 96 93 29 100 51 64 67 42 74 1 204 189 227 131 55 73 79 195 102 144 136 142 135 98 68 61 55 68 89 91 87 88 89 87 94 100 95 90 89 109 112 112 112 105 110
163 61 92 101 141 88 87 39 33 81 85 53 68 44 61 62 353 2 22 27 25 76 48 41 20 354 333 6 61 133 131 131 119 96 74 65 64 83 86 100 102 109 99 90 81 89 93 87 91 110 112 117 119 122
137 167 67 72 54 61 86 84 63 80 108 77 92 98 66 22 5 16 8 347 55 28 51 33 25 20 38 73 81 100 96 101 85 113 126 103 77 93 90 83 87 89 96 98 99 89 89 106 118 112 108 96 98 105
162 112 82 23 76 54 70 13 113 124 79 81 57 54 62 61 17 6 318 46 53 16 27 99 94 90 84 64 66 71 96 91 90 91 89 102 101 94 94 103 106 96 92 98 106 106 104 105 103 100 104 103 104 105
114 65 56 53 74 49 87 6 86 45 100 108 53 71 32 54 337 316 67 65 74 16 34 82 83 83 93 83 91 70 83 99 91 89 92 91 85 82 85 74 86 101 98 75 91 101 103 102 97 105 108 99 101 94
52 62 73 79 89 163 16 30 76 84 70 78 90 89 39 56 359 50 74 51 3 330 89 95 119 98 72 69 70 67 60 94 92 76 75 97 85 67 73 77 73 73 92 105 96 96 94 94 101 94 95 97 88 90
85 337 89 49 1 84 78 51 25 69 95 92 89 83 356 53 74 49 73 23 42 93 74 70 65 78 96 89 76 70 31 97 105 95 47 97 109 100 82 77 70 61 81 102 93 98 91 92 87 88 81 78 84 69
85 273 106 165 193 118 168 126 155 152 117 74 96 91 60 86 75 105 45 9 118 165 169 131 124 100 70 73 116 88 67 74 102 93 60 53 92 114 113 106 95 50 30 97 112 105 98 89 89 91 86 71 57 39
103 211 145 168 117 108 78 71 101 100 104 140 165 105 89 88 159 142 108 19 75 58 43 51 102 113 126 112 87 64 63 61 80 93 82 61 50 41 89 110 101 85 81 89 93 105 112 105 93 79 81 73 52 37
145 146 135 206 86 69 121 92 115 143 158 136 101 71 115 145 108 70 72 69 88 88 82 66 64 85 97 100 100 101 92 98 99 98 86 63 51 51 63 72 75 79 79 76 86 82 85 90 90 84 77 80 72 45
84 107 100 53 68 62 85 135 162 118 118 105 109 114 97 64 14 17 63 96 107 115 100 96 81 91 87 78 65 62 79 104 113 98 96 103 93 49 36 75 79 77 84 85 79 80 81 83 84 83 73 71 62 51
164 107 97 71 77 61 331 2 91 92 47 86 103 107 80 63 14 359 55 90 96 101 97 100 104 113 112 108 96 64 35 25 53 124 130 132 126 128 104 92 88 83 86 92 97 89 69 71 69 59 59 55 45 38
96 80 76 68 76 59 104 109 76 64 55 66 52 99 100 122 79 33 31 42 98 107 106 102 90 82 104 106 110 104 82 23 59 85 95 105 111 109 102 93 91 90 89 88 83 82 86 75 74 73 65 59 44 36
40 85 114 99 104 118 73 61 58 78 74 83 78 63 51 62 65 27 2 340 101 93 87 106 105 87 73 85 76 72 93 103 95 95 99 102 101 100 99 99 91 89 88 87 88 92 90 89 80 73 69 59 48 38
58 47 61 83 90 102 20 91 74 82 45 58 45 62 55 77 101 44 33 18 31 88 99 95 91 85 82 85 92 90 82 83 85 85 84 88 94 101 98 92 93 95 95 96 93 93 87 87 81 75 69 64 55 44